Location: Unspecified
(22.6800°N, 112.2000°E)
Time: 11:54:19
(UTC+08:00)

Transit 2A - Pass Details

Date: 12 August 2021
Orbit: 595 x 963 km, 66.7° (Epoch: 16 September)

Event Time Altitude Azimuth Distance (km) Brightness Sun altitude
Rises 12:30:11 0° 360° (N) 3,415 9.3 82.1°
Reaches altitude 10° 12:33:25 10° 18° (NNE) 2,542 8.8 82.2°
Maximum altitude 12:37:25 18° 61° (ENE) 2,068 8.5 82.2°
Drops below altitude 10° 12:41:33 10° 103° (ESE) 2,655 9.0 82.1°
Sets 12:45:00 0° 121° (ESE) 3,625 9.5 82.0°
